Wind_Speed
4 4 4 4 5 6 6 6 6 6 7 8 9 9 9 8 9 9 9 8 8 8 8 8 7 8 8 8 9 10 10 10 10 11 11 11 12 11 11 11 11 11 11
5 5 5 5 5 6 6 6 6 7 7 8 9 9 10 10 9 9 9 9 9 9 9 9 9 9 9 10 10 10 11 10 11 11 12 13 12 13 12 12 12 12 12
6 6 6 6 6 6 6 7 7 8 8 9 9 10 11 10 9 9 9 9 9 10 9 10 10 10 10 11 11 12 12 12 12 12 12 13 13 13 13 14 14 13 14
7 7 7 7 6 6 7 7 7 8 9 9 10 10 11 10 10 10 10 10 10 10 11 10 11 11 11 12 12 13 14 14 14 14 14 14 13 13 13 14 14 15 15
7 7 7 8 8 7 7 8 8 9 9 10 10 10 11 11 11 11 11 11 11 12 12 11 12 12 13 14 14 15 15 15 15 15 15 15 15 15 15 15 16 16 16
8 8 8 9 8 8 8 8 9 10 10 10 10 11 12 12 12 12 13 13 13 13 13 13 13 14 15 15 16 16 16 16 16 15 16 16 16 16 17 17 17 17 17
10 10 10 10 10 10 10 10 10 10 10 11 11 12 12 13 13 13 14 14 14 14 14 15 15 15 16 17 17 17 17 17 16 17 17 17 17 17 17 17 18 18 18
12 11 11 11 11 11 11 11 11 10 11 12 13 13 13 13 14 15 15 15 16 16 16 17 18 18 18 18 18 19 19 18 18 18 18 18 18 18 18 18 19 19 19
13 13 12 11 12 12 12 12 12 13 14 14 14 14 14 14 14 16 17 17 17 17 18 18 19 20 20 19 19 19 19 19 19 19 19 20 20 20 20 20 20 19 20
14 13 12 12 12 13 13 13 13 14 14 15 15 15 15 16 16 16 17 17 18 19 19 19 20 21 20 20 19 19 19 19 20 20 20 20 21 21 22 22 21 21 21
14 13 13 13 14 14 14 14 14 14 15 16 16 17 18 18 18 19 18 18 19 19 19 19 20 20 20 20 20 20 20 20 20 21 21 21 21 21 22 22 22 22 22
14 13 14 15 15 15 15 15 15 16 16 17 18 19 20 20 21 20 19 20 20 20 20 19 20 20 21 21 20 21 22 22 22 22 22 22 22 22 23 22 22 22 23
15 15 15 15 16 17 17 17 18 18 18 19 20 21 21 22 21 21 21 20 21 21 21 21 21 22 22 22 21 22 23 23 22 22 23 23 23 23 24 23 23 23 24
17 17 17 17 17 17 18 18 18 19 19 20 20 21 22 22 22 22 22 22 23 23 23 22 23 23 23 22 22 23 23 23 23 23 23 23 24 24 24 24 24 24 24
19 18 18 19 18 19 19 19 20 20 20 21 21 22 23 23 24 24 24 25 24 24 22 22 23 23 23 23 24 24 23 23 24 24 25 24 24 24 25 25 26 26 26
20 20 20 20 20 20 20 20 20 21 21 22 23 23 24 24 25 25 25 26 26 25 24 24 23 24 24 24 25 25 25 25 25 25 25 25 25 25 26 26 26 25 26
21 21 22 21 21 21 21 21 21 22 22 22 24 24 25 25 26 26 26 27 27 26 26 25 25 25 25 25 25 25 26 26 25 25 26 25 25 25 25 25 25 25 26
21 22 22 22 23 23 23 22 23 23 23 24 25 25 26 26 26 27 27 27 27 27 27 27 26 26 26 26 26 27 26 25 26 25 25 25 25 25 25 25 25 25 25
23 24 24 24 24 24 24 24 24 24 25 25 26 27 27 27 27 27 27 27 27 28 28 28 28 27 27 28 28 28 27 26 26 26 26 26 26 26 25 25 25 25 25
25 25 25 25 25 25 26 25 25 25 25 26 27 28 28 28 28 28 28 28 28 28 28 29 29 28 28 29 28 28 27 26 26 26 26 26 26 26 25 26 25 25 24
27 27 27 27 27 28 27 27 27 27 27 27 27 28 28 28 29 29 28 28 28 29 29 30 30 30 29 29 28 28 27 27 27 27 27 27 26 26 25 25 25 24 24
28 28 28 28 29 29 29 29 28 29 29 29 29 29 28 28 29 29 29 29 29 30 30 31 31 30 29 28 29 28 28 28 28 28 28 27 27 26 26 25 25 25 25
29 29 30 30 30 31 30 30 30 30 30 30 30 30 30 30 30 29 29 29 30 30 31 31 30 29 28 29 29 29 29 29 28 28 28 27 27 26 26 26 26 25 25
30 31 31 32 32 31 30 30 30 31 30 30 30 31 32 31 31 31 30 30 30 31 31 31 30 29 28 29 29 28 29 29 29 28 29 28 28 27 27 26 26 26 26
32 33 33 33 33 32 31 31 30 31 31 31 32 32 32 32 32 32 32 32 31 32 32 32 30 29 29 29 29 28 28 28 28 29 29 28 28 27 27 27 27 26 26
33 34 34 35 34 32 32 32 32 32 32 33 33 33 33 34 34 34 33 32 32 33 32 32 31 30 29 29 29 29 29 29 28 28 28 29 28 27 26 26 26 26 26
Wind_Direction
333 331 327 322 320 319 316 316 317 319 323 320 318 321 323 322 325 323 322 319 317 314 313 310 303 304 307 309 304 303 300 303 302 296 291 286 283 290 290 288 289 286 285
334 331 327 322 319 320 320 318 312 317 322 319 315 322 326 321 320 323 322 320 317 316 314 311 309 311 310 306 304 303 303 303 302 301 294 289 289 287 289 286 285 286 285
332 331 326 324 324 326 326 325 320 317 321 325 325 324 325 320 319 322 325 323 321 317 314 312 311 311 313 312 309 308 306 302 302 299 294 292 293 291 288 284 287 286 286
324 321 316 315 314 322 321 319 320 319 320 322 323 326 328 324 319 320 320 318 316 315 315 313 311 311 311 310 309 308 305 301 299 296 291 291 291 292 289 287 288 288 289
321 318 314 314 311 312 313 312 312 315 315 319 322 325 325 321 318 317 315 317 314 312 311 309 307 309 310 308 306 307 305 302 298 293 291 290 289 286 287 288 286 287 289
321 318 315 315 311 309 310 313 314 311 310 316 321 322 322 320 317 312 312 314 311 311 308 306 305 306 306 306 304 303 303 301 295 293 293 293 290 290 291 289 286 285 285
318 315 312 314 311 307 307 309 314 314 313 315 317 319 320 318 316 311 310 311 308 306 305 302 302 304 305 305 304 302 301 300 295 292 292 291 290 289 291 290 288 287 286
318 314 311 308 309 309 307 304 310 314 314 316 316 316 318 318 317 313 309 307 306 303 302 301 302 303 303 303 303 301 299 298 297 293 291 290 289 287 290 290 289 286 285
316 312 310 308 308 308 308 307 309 312 312 313 315 314 314 316 315 313 309 305 303 302 301 300 301 301 302 302 300 300 300 299 297 293 293 290 288 288 287 287 288 286 284
313 314 311 308 304 304 306 305 305 307 310 313 313 315 315 313 313 312 311 307 302 301 300 300 300 299 300 302 301 300 300 299 297 294 293 291 288 287 286 286 286 286 284
314 311 311 311 306 301 299 299 301 303 307 311 313 314 315 316 314 312 310 309 303 301 301 302 302 301 299 300 300 299 299 298 297 295 292 291 289 287 287 287 286 285 282
323 318 314 311 308 301 297 298 298 300 304 307 309 310 312 313 314 315 312 312 307 303 302 302 302 301 300 299 299 298 297 296 297 296 294 291 289 288 287 286 285 283 280
321 319 318 313 310 308 303 299 297 298 300 302 304 307 309 309 310 312 311 311 310 308 303 301 300 299 298 298 298 296 295 295 296 296 295 292 290 287 286 285 282 281 279
318 317 315 311 310 308 305 301 298 297 298 301 303 304 305 306 307 308 308 307 308 308 306 303 300 299 297 296 296 295 292 293 294 294 293 292 292 290 286 285 283 280 279
318 316 313 309 307 305 302 301 301 299 298 298 300 302 304 304 304 304 305 307 307 307 305 305 302 302 302 298 296 293 293 293 292 291 291 291 291 289 288 287 285 281 277
315 315 314 309 306 304 300 298 300 300 299 298 298 299 302 303 303 302 302 304 304 304 303 304 303 305 304 301 299 296 293 293 292 291 291 291 289 288 288 287 284 282 278
312 312 311 310 306 302 301 301 300 300 299 298 299 300 301 301 301 301 301 301 300 300 301 302 302 303 303 301 299 297 296 294 292 291 290 289 289 288 287 288 285 281 278
308 309 309 308 305 304 303 302 301 303 303 300 300 300 300 300 299 300 300 299 299 300 300 300 300 301 301 300 299 297 297 293 292 290 290 289 290 290 288 287 286 283 281
304 305 306 306 305 304 304 303 303 304 304 304 303 302 300 300 300 300 300 299 298 299 301 301 299 298 298 298 297 297 298 295 293 292 290 289 290 290 290 289 288 286 283
302 302 302 303 303 303 304 303 303 302 303 304 305 304 302 298 299 300 299 299 299 299 301 300 300 298 297 298 297 295 294 294 294 293 291 289 288 288 289 289 288 286 284
299 300 300 300 300 301 301 300 300 301 301 302 303 304 304 302 300 301 300 300 300 300 301 300 300 299 297 297 296 296 295 293 292 292 291 290 289 288 288 289 287 285 283
298 298 298 298 298 298 297 298 298 299 300 300 301 302 303 303 302 301 301 301 300 300 301 301 300 299 296 295 296 297 297 296 294 292 290 289 288 289 288 289 288 286 283
296 298 298 297 296 296 296 296 297 297 298 299 299 300 300 301 301 300 300 301 301 302 302 302 301 300 298 296 296 296 296 297 297 295 292 289 287 287 287 286 286 284 281
296 297 297 296 295 294 294 295 295 296 297 297 297 298 299 299 300 299 300 301 301 302 302 303 303 302 300 299 299 298 297 297 296 295 294 291 289 287 285 286 285 282 280
295 295 296 295 294 293 293 293 294 295 296 296 297 297 297 297 298 298 298 299 300 300 301 302 301 301 301 300 299 299 300 300 297 296 293 292 291 288 286 285 284 281 279
295 296 294 295 294 293 293 293 294 295 295 296 296 296 296 295 295 296 296 297 297 298 299 299 298 298 299 299 298 297 298 298 298 297 295 293 292 289 287 286 284 281 279
Height
5896 5895 5895 5894 5894 5894 5894 5893 5892 5892 5891 5890 5889 5889 5888 5887 5886 5885 5884 5884 5883 5883 5882 5882 5881 5881 5880 5880 5879 5879 5878 5878 5877 5876 5876 5876 5875 5875 5874 5874 5874 5873 5873
5895 5895 5894 5893 5893 5893 5892 5892 5891 5891 5890 5889 5888 5887 5887 5886 5885 5884 5883 5882 5882 5881 5881 5880 5880 5879 5879 5878 5878 5877 5876 5875 5875 5874 5874 5873 5872 5872 5872 5871 5871 5870 5870
5894 5894 5893 5893 5892 5892 5891 5891 5890 5890 5889 5888 5887 5886 5886 5884 5883 5882 5881 5880 5880 5879 5879 5878 5878 5877 5877 5876 5875 5875 5874 5873 5872 5871 5871 5870 5869 5869 5868 5868 5868 5867 5867
5894 5893 5892 5892 5891 5890 5890 5890 5889 5889 5888 5887 5886 5885 5884 5883 5882 5881 5880 5879 5878 5878 5877 5877 5876 5875 5875 5874 5873 5872 5871 5870 5869 5868 5868 5867 5866 5866 5865 5864 5864 5864 5863
5893 5892 5891 5891 5890 5889 5889 5889 5888 5887 5887 5886 5885 5884 5882 5881 5880 5879 5878 5877 5876 5875 5875 5874 5874 5873 5872 5871 5870 5869 5868 5867 5866 5865 5864 5863 5863 5862 5862 5861 5860 5860 5860
5892 5891 5890 5889 5889 5888 5888 5887 5887 5886 5885 5884 5883 5882 5881 5879 5879 5877 5876 5875 5874 5873 5872 5871 5871 5870 5869 5868 5867 5866 5864 5863 5862 5861 5861 5860 5859 5858 5858 5857 5856 5856 5856
5891 5890 5889 5888 5887 5887 5887 5886 5885 5884 5883 5882 5881 5880 5879 5878 5876 5875 5874 5872 5871 5870 5869 5868 5867 5867 5865 5864 5863 5862 5860 5859 5858 5857 5856 5856 5855 5854 5853 5853 5852 5851 5851
5890 5888 5887 5887 5886 5886 5885 5884 5883 5882 5881 5880 5879 5878 5877 5876 5874 5872 5871 5870 5868 5867 5866 5864 5863 5862 5861 5860 5859 5858 5857 5855 5854 5853 5852 5851 5851 5850 5849 5848 5848 5847 5846
5888 5887 5886 5885 5884 5883 5883 5882 5881 5880 5879 5878 5876 5875 5874 5873 5871 5870 5868 5866 5865 5863 5862 5861 5859 5858 5857 5856 5854 5853 5852 5851 5849 5848 5847 5847 5846 5845 5844 5844 5843 5842 5842
5886 5885 5884 5883 5882 5881 5881 5880 5879 5878 5877 5875 5874 5872 5871 5870 5868 5867 5865 5863 5861 5859 5858 5856 5855 5853 5852 5851 5850 5848 5847 5846 5845 5843 5842 5841 5841 5840 5839 5838 5838 5837 5836
5885 5884 5882 5881 5880 5879 5878 5877 5876 5875 5874 5873 5871 5869 5868 5866 5864 5862 5861 5859 5857 5854 5853 5852 5850 5848 5847 5846 5845 5843 5842 5841 5839 5838 5837 5836 5835 5834 5834 5833 5832 5831 5830
5883 5882 5880 5879 5877 5876 5875 5874 5873 5872 5871 5869 5868 5866 5864 5862 5860 5858 5856 5854 5852 5850 5848 5846 5845 5843 5842 5841 5839 5838 5836 5835 5834 5833 5831 5830 5829 5829 5828 5827 5826 5825 5824
5881 5880 5878 5876 5874 5873 5872 5871 5869 5868 5867 5865 5864 5862 5860 5858 5856 5854 5852 5849 5847 5845 5843 5841 5840 5838 5836 5835 5833 5832 5830 5829 5828 5827 5826 5824 5823 5822 5821 5820 5819 5818 5817
5878 5877 5875 5873 5871 5870 5868 5866 5865 5864 5862 5861 5859 5858 5856 5853 5851 5849 5847 5845 5843 5840 5838 5836 5834 5832 5830 5829 5827 5825 5824 5823 5822 5820 5819 5818 5816 5815 5814 5813 5812 5811 5810
5875 5873 5872 5870 5868 5866 5864 5863 5861 5860 5858 5856 5855 5853 5851 5849 5846 5844 5842 5839 5837 5835 5833 5831 5829 5826 5825 5823 5821 5819 5817 5816 5815 5813 5812 5811 5809 5808 5807 5806 5805 5804 5803
5872 5870 5868 5866 5864 5862 5860 5858 5857 5856 5854 5852 5850 5848 5846 5843 5841 5839 5837 5834 5831 5829 5827 5825 5823 5820 5818 5816 5813 5811 5810 5809 5807 5806 5805 5804 5802 5801 5800 5798 5797 5796 5796
5869 5866 5864 5862 5859 5858 5856 5854 5852 5850 5848 5847 5844 5842 5840 5838 5836 5833 5830 5828 5825 5823 5821 5819 5816 5814 5812 5809 5806 5804 5803 5802 5801 5799 5798 5796 5795 5794 5792 5791 5790 5789 5788
5865 5862 5860 5857 5855 5853 5851 5849 5847 5845 5843 5841 5839 5837 5834 5832 5829 5827 5824 5822 5819 5817 5815 5813 5810 5808 5805 5803 5800 5798 5795 5794 5793 5792 5790 5789 5788 5786 5785 5784 5782 5781 5781
5860 5858 5855 5853 5850 5848 5846 5843 5841 5839 5837 5835 5833 5831 5828 5825 5823 5820 5818 5815 5813 5810 5808 5806 5804 5801 5799 5796 5794 5791 5789 5787 5786 5784 5783 5782 5781 5779 5778 5777 5775 5774 5773
5854 5852 5850 5847 5845 5842 5840 5838 5836 5834 5832 5829 5827 5824 5821 5819 5816 5814 5811 5808 5806 5803 5801 5798 5796 5794 5791 5789 5787 5784 5782 5781 5779 5777 5776 5775 5773 5772 5771 5769 5768 5767 5766
5848 5846 5843 5841 5839 5836 5834 5832 5830 5828 5825 5823 5820 5817 5814 5811 5809 5806 5804 5801 5799 5796 5794 5791 5789 5786 5784 5781 5779 5776 5775 5773 5772 5770 5769 5768 5766 5765 5763 5762 5761 5759 5758
5841 5839 5837 5834 5832 5829 5827 5825 5823 5821 5818 5816 5813 5810 5807 5805 5802 5799 5796 5794 5791 5788 5786 5783 5780 5778 5775 5773 5770 5768 5767 5766 5764 5763 5761 5760 5759 5757 5756 5755 5753 5752 5751
5834 5832 5830 5827 5825 5822 5820 5818 5815 5813 5811 5808 5805 5803 5800 5797 5795 5792 5789 5787 5783 5781 5778 5776 5773 5770 5767 5765 5763 5761 5759 5757 5756 5754 5753 5752 5751 5749 5748 5747 5745 5744 5743
5826 5824 5822 5819 5817 5814 5812 5810 5807 5805 5802 5800 5798 5795 5793 5790 5787 5784 5782 5779 5776 5773 5771 5768 5765 5762 5760 5757 5755 5753 5750 5749 5747 5746 5744 5744 5742 5741 5740 5738 5737 5736 5735
5819 5816 5814 5811 5809 5806 5803 5800 5799 5796 5794 5792 5789 5787 5784 5782 5779 5776 5774 5771 5768 5766 5762 5760 5757 5755 5752 5749 5747 5745 5743 5741 5739 5738 5736 5734 5733 5732 5731 5730 5729 5728 5727
5810 5807 5805 5802 5799 5797 5795 5792 5790 5788 5786 5783 5781 5778 5776 5773 5770 5768 5765 5763 5760 5757 5755 5752 5749 5747 5744 5741 5739 5737 5735 5733 5731 5729 5727 5725 5724 5723 5723 5721 5720 5719 5718